Regional Weather Roundup
Issued by NWS

Home | Current Version | Previous Version | Text Only | Print | Product List | Glossary Off
Versions: 1 2 3 4 5 6 7 8 9 10 11 12 13 14 15 16 17 18 19 20 21 22 23 24 25 26 27 28 29 30 31 32 33 34 35 36 37 38 39 40 41 42 43 44 45 46 47 48 49 50

000
ASUS43 KMKX 230411
RWRWI

WISCONSIN REGIONAL WEATHER ROUNDUP
NATIONAL WEATHER SERVICE MILWAUKEE/SULLIVAN WI
1100 PM CDT MON SEP 22 2014

NOTE: "FAIR" INDICATES FEW OR NO CLOUDS BELOW 12,000 FEET WITH NO
SIGNIFICANT WEATHER AND/OR OBSTRUCTIONS TO VISIBILITY.

WIZ001-002-006>008-014>016-023>028-230500-
NORTHWEST WISCONSIN

CITY           SKY/WX    TMP DP  RH WIND       PRES   REMARKS
SUPERIOR ARPT  CLEAR     54  51  90 SW6       30.14S
ASHLAND        CLEAR     56  51  84 SW7       30.16R
HAYWARD        CLEAR     49  47  93 CALM      30.18R
SIREN          CLEAR     53  51  94 CALM      30.18R
CUMBERLAND     CLEAR     46  46 100 S3        30.20R
RICE LAKE      CLEAR     50  49  95 CALM      30.21R
CHETEK         CLEAR     49  49  99 CALM      30.20S
LADYSMITH      CLEAR     49  48  95 CALM      30.22R
EAU CLAIRE     CLEAR     50  48  93 CALM      30.20R
MENOMONIE      CLEAR     52  50  93 CALM      30.20S
NEW RICHMOND   CLEAR     51  51  97 CALM      30.19S
OSCEOLA        CLEAR     50  50 100 CALM      30.21R
$$

WIZ003>005-009-010-017-018-230500-
NORTH CENTRAL WISCONSIN

CITY           SKY/WX    TMP DP  RH WIND       PRES   REMARKS
MANITOWISH WTR CLEAR     46  46 100 CALM      30.18S
ARBOR VITAE    CLEAR     52  49  89 CALM      30.19S
WOODRUFF       CLEAR     52  49  89 CALM      30.19S
RHINELANDER    CLEAR     50  48  93 W5        30.20R
EAGLE RIVER    CLEAR     46  46 100 SW6       30.18S
LAND O LAKES   CLEAR     42  42  99 CALM      30.19R
PHILLIPS       CLEAR     47  46  97 CALM      30.20R
TOMAHAWK       CLEAR     47  46  95 CALM      30.21S
MEDFORD        CLEAR     51  48  92 CALM      30.21S
MERRILL          N/A     45  45  99 CALM      30.21S FOG
$$

WIZ029-030-035-036-043>047-230500-
CENTRAL WISCONSIN

CITY           SKY/WX    TMP DP  RH WIND       PRES   REMARKS
WAUSAU         CLEAR     53  49  86 CALM      30.20R
MOSINEE        CLEAR     50  50 100 CALM      30.23R
MARSHFIELD     CLEAR     51  49  92 SW3       30.22R
STEVENS POINT  CLEAR     46  45  97 CALM      30.23R
WAUPACA        CLEAR     51  50  94 CALM      30.22R
WAUTOMA        CLEAR     47  46  96 CALM      30.23R
WISC RAPIDS    CLEAR     48  47  96 CALM      30.23S
CAMP DOUGLAS   CLEAR     45  45 100 SE1       30.23R
$$

WIZ011>013-019>022-031-037>040-048>050-230500-
NORTHEAST WISCONSIN

CITY           SKY/WX    TMP DP  RH WIND       PRES   REMARKS
ANTIGO         CLEAR     50  48  92 W5        30.21S
SHAWANO        CLEAR     55  50  83 CALM      30.20S
OCONTO         CLEAR     48  48 100 CALM      30.18S
STURGEON BAY   CLEAR     55  48  76 SW8       30.19S
GREEN BAY      CLEAR     51  49  92 SW3       30.20S
MANITOWOC      CLEAR     50  49  96 SW3       30.21S
APPLETON       CLEAR     52  48  87 W7        30.22R
CLINTONVILLE   CLEAR     48  46  93 CALM      30.21S
OSHKOSH        CLEAR     52  49  89 SW6       30.22R
$$

WIZ032>034-041-042-053>061-230500-
SOUTHWEST WISCONSIN

CITY           SKY/WX    TMP DP  RH WIND       PRES   REMARKS
LA CROSSE      CLEAR     53  50  89 SE6       30.21S
SPARTA         CLEAR     46  45  93 CALM      30.24R
VIROQUA        CLEAR     56  50  80 S5        30.23S
BOSCOBEL       FOG       48  46  93 CALM      30.24S VSB 1
PRAIRIE DU CHI CLEAR     51  49  92 CALM      30.24R
PLATTEVILLE    CLEAR     54  47  77 S6        30.26S
$$

WIZ056-057-062-063-064-067-068-230500-
SOUTH CENTRAL WISCONSIN

CITY           SKY/WX    TMP DP  RH WIND       PRES   REMARKS
REEDSBURG      CLEAR     49  48  99 CALM      30.24R
BARABOO/DELLS  CLEAR     50  47  90 CALM      30.24R
LONE ROCK      CLEAR     51  46  83 E5        30.24S
MINERAL POINT  CLEAR     55  46  71 S6        30.25S
MADISON        CLEAR     51  49  92 CALM      30.24R
MIDDLETON        N/A     47  47  99 CALM      30.25S VSB 1
WATERTOWN      CLEAR     47  47  99 CALM      30.24R
MONROE         CLEAR     55  46  71 SW8       30.25S
JANESVILLE     CLEAR     52  45  76 CALM      30.25S
$$

WIZ051-052-058>065-066-070>072-230500-
SOUTHEAST WISCONSIN

CITY           SKY/WX    TMP DP  RH WIND       PRES   REMARKS
MILWAUKEE      CLEAR     56  47  71 S3        30.25R
WAUKESHA       CLEAR     50  45  81 CALM      30.25S
MILWAUKEE/TIMM CLEAR     52  45  76 CALM      30.25R
RACINE         CLEAR     52  47  83 SW5       30.26R
BURLINGTON     CLEAR     44  43  99 S3        30.25S
KENOSHA        CLEAR     50  47  89 SW3       30.26R
FOND DU LAC    CLEAR     55  49  80 SW6       30.23R
SHEBOYGAN      CLEAR     50  47  89 S3        30.22R
WEST BEND      CLEAR     48  45  87 CALM      30.23S
JUNEAU         CLEAR     52  49  89 S3        30.24S
$$

LSZ147-162-230500-
LAKE SUPERIOR

STATION/POSITION TIME  TEMP    WIND        PRES    WAVE
                       AIR SEA DIR/SP/G            HT/PER
                 (UTC) (F)     (DEG/KT/KT) (MB)    (FT/S)
W MID LAKE BUOY  0350   53 48  230/ 12/ 12 1018.9R   2/ 5
DEVILS ISLAND    0400   60     240/ 18/ 20 1019.8R
PORT WING        0340   60     190/  8/  9 1020.3R
SAXON HARBOR     0300   59     200/  6/  9 1020.3S
$$

LMZ867-665-643>646-230500-
LAKE MICHIGAN

STATION/POSITION TIME  TEMP    WIND        PRES    WAVE
                       AIR SEA DIR/SP/G            HT/PER
                 (UTC) (F)     (DEG/KT/KT) (MB)    (FT/S)
CHAMBERS ISLAND  0340   58     200/  5/  9 1021.7R
S GREEN BAY BUOY 0330   60                 1023.0R
N MID LAKE BUOY  0350   58 57  230/ 16/ 17 1021.0R   3/ 4
NORTHPORT PIER   0300   58     230/  3/  6 1021.3R
KEWAUNEE LAKESHO 0300   54     250/  1/  2 1021.4R
SHEBOYGAN LAKESH 0400   57 53  240/  6/  6 1023.8R
PORT WASHINGTON  0340   55     270/  4/  4 1024.0R
ATWATER BUOY     0400   59     230/  6/  8 1024.8R
S MID LAKE BUOY  0350   60 62  200/ 14/ 16 1024.5R   1/ 3
KENOSHA   LAKESH 0400   57     210/  5/  9 1024.0S
$$

TC  - TEMPERATURE IN CELSIUS
VSB - VISIBILITY IN STATUTE MILES
WCI - WIND CHILL INDEX
HX  - HEAT INDEX



USA.gov is the U.S. government's official web portal to all federal, state and local government web resources and services.